KE5VT Weather Reports


Display with metric or nautical units.
time (UTC)temp
F
wind
direction
speed
MPH
gust
MPH
rain 1hr
in
rain 24hr
in
rain mn
in
humidity
%
barometer
mb
20260506113459 61 290 0.0 1.0 0.00 0.00 0.00 85 1010.6
20260506112955 61 290 0.0 0.0 0.00 0.00 0.00 85 1010.8
20260506112453 61 149 0.0 0.0 0.00 0.00 0.00 85 1010.7
20260506111950 61 177 0.0 0.0 0.00 0.00 0.00 85 1010.6
20260506111448 61 98 0.0 0.0 0.00 0.00 0.00 85 1010.5
20260506110945 61 169 0.0 0.0 0.00 0.00 0.00 85 1010.3
20260506110443 61 153 0.0 0.0 0.00 0.00 0.00 85 1010.2
20260506105939 61 97 0.0 0.0 0.00 0.00 0.00 85 1009.9
20260506105435 61 149 0.0 0.0 0.00 0.00 0.00 85 1009.9
20260506104933 61 320 3.0 4.0 0.00 0.00 0.00 85 1009.9
20260506104431 61 200 0.0 0.0 0.00 0.00 0.00 85 1009.8
20260506103929 61 146 0.0 0.0 0.00 0.00 0.00 85 1009.5
20260506103426 61 9 0.0 1.0 0.00 0.00 0.00 86 1009.7
20260506102923 61 155 0.0 0.0 0.00 0.00 0.00 85 1009.5
20260506102421 61 150 0.0 0.0 0.00 0.00 0.00 85 1009.5
20260506101918 61 156 0.0 0.0 0.00 0.00 0.00 85 1009.6
20260506101414 61 301 1.0 4.0 0.00 0.00 0.00 84 1009.7
20260506100911 61 267 0.0 1.0 0.00 0.00 0.00 84 1009.8
20260506100410 61 179 0.0 0.0 0.00 0.00 0.00 84 1010.0
20260506095907 61 199 0.0 0.0 0.00 0.00 0.00 84 1010.0
20260506095406 61 227 0.0 0.0 0.00 0.00 0.00 84 1009.6
20260506094902 61 155 0.0 0.0 0.00 0.00 0.00 84 1009.8
20260506094401 61 171 0.0 0.0 0.00 0.00 0.00 84 1009.6
20260506093858 61 74 0.0 0.0 0.00 0.00 0.00 83 1009.7
20260506093355 62 163 0.0 1.0 0.00 0.00 0.00 83 1009.9
20260506092853 62 246 0.0 1.0 0.00 0.00 0.00 83 1010.0
20260506092351 62 116 0.0 0.0 0.00 0.00 0.00 83 1009.9
20260506091847 62 234 0.0 1.0 0.00 0.00 0.00 83 1009.9
20260506091345 62 242 1.0 2.0 0.00 0.00 0.00 82 1010.0
20260506090842 62 137 0.0 0.0 0.00 0.00 0.00 82 1010.1
20260506090340 62 124 0.0 0.0 0.00 0.00 0.00 81 1009.9
20260506085836 62 236 1.0 2.0 0.00 0.00 0.00 81 1010.1
20260506085332 62 172 3.0 3.0 0.00 0.00 0.00 81 1010.3
20260506084829 62 213 1.0 2.0 0.00 0.00 0.00 81 1010.0
20260506084326 62 143 0.0 0.0 0.00 0.00 0.00 81 1010.0
20260506083822 62 178 0.0 0.0 0.00 0.00 0.00 80 1010.2
20260506083320 62 187 0.0 0.0 0.00 0.00 0.00 80 1010.3
20260506082817 62 194 1.0 1.0 0.00 0.00 0.00 80 1010.2
20260506082314 62 168 0.0 0.0 0.00 0.00 0.00 80 1010.2
20260506081810 62 202 0.0 1.0 0.00 0.00 0.00 80 1010.5
20260506081308 62 142 0.0 1.0 0.00 0.00 0.00 80 1010.6
20260506080806 62 176 0.0 1.0 0.00 0.00 0.00 80 1010.3
20260506080302 62 136 0.0 0.0 0.00 0.00 0.00 80 1010.5
20260506073246 63 213 1.0 1.0 0.00 0.00 0.00 79 1010.7
20260506072743 63 178 0.0 0.0 0.00 0.00 0.00 79 1010.7
20260506072240 63 151 0.0 0.0 0.00 0.00 0.00 79 1010.7
20260506071738 63 188 0.0 0.0 0.00 0.00 0.00 79 1010.7
20260506071236 63 166 0.0 0.0 0.00 0.00 0.00 79 1010.3
20260506070732 63 20 2.0 4.0 0.00 0.00 0.00 78 1010.5
20260506070229 63 161 1.0 2.0 0.00 0.00 0.00 78 1010.6
20260506062206 63 123 0.0 0.0 0.00 0.00 0.00 77 1010.9
20260506061702 63 171 2.0 2.0 0.00 0.00 0.00 76 1010.8
20260506061200 63 141 0.0 1.0 0.00 0.00 0.00 76 1010.9
20260506060659 64 142 3.0 6.0 0.00 0.00 0.00 76 1011.0
20260506060154 64 129 0.0 0.0 0.00 0.00 0.00 76 1011.1
20260506051127 65 139 0.0 0.0 0.00 0.00 0.00 71 1011.1
20260506050625 65 171 0.0 0.0 0.00 0.00 0.00 70 1011.2
20260506050122 65 144 0.0 0.0 0.00 0.00 0.00 70 1011.3
20260506045115 66 334 2.0 3.0 0.00 0.00 0.00 69 1011.3
20260506044613 66 154 0.0 0.0 0.00 0.00 0.00 69 1011.3
20260506044110 66 137 1.0 2.0 0.00 0.00 0.00 68 1011.2
20260506043607 66 115 2.0 3.0 0.00 0.00 0.00 68 1011.2
20260506043105 66 154 2.0 3.0 0.00 0.00 0.00 68 1011.0
20260506042604 66 178 4.0 4.0 0.00 0.00 0.00 67 1011.1
20260506042101 66 138 0.0 0.0 0.00 0.00 0.00 67 1011.4
20260506041600 67 187 0.0 0.0 0.00 0.00 0.00 67 1011.2
20260506041056 67 155 2.0 3.0 0.00 0.00 0.00 67 1011.1
20260506040554 67 148 0.0 0.0 0.00 0.00 0.00 67 1011.0
20260506040050 67 156 0.0 1.0 0.00 0.00 0.00 66 1011.1
20260506035548 67 140 0.0 2.0 0.00 0.00 0.00 66 1010.8
20260506035044 67 132 0.0 0.0 0.00 0.00 0.00 66 1011.0
20260506034541 67 166 5.0 7.0 0.00 0.00 0.00 65 1011.1
20260506034038 67 145 0.0 0.0 0.00 0.00 0.00 65 1010.9
20260506033536 67 139 1.0 2.0 0.00 0.00 0.00 65 1010.9
20260506033032 68 106 0.0 1.0 0.00 0.00 0.00 65 1010.7
20260506032530 68 192 0.0 0.0 0.00 0.00 0.00 65 1010.8
20260506032026 68 283 2.0 3.0 0.00 0.00 0.00 65 1010.9
20260506031524 68 230 2.0 3.0 0.00 0.00 0.00 64 1010.8
20260506031021 68 143 0.0 0.0 0.00 0.00 0.00 64 1010.7
20260506030519 68 151 1.0 1.0 0.00 0.00 0.00 63 1010.6
20260506030016 68 150 3.0 3.0 0.00 0.00 0.00 62 1010.7
20260506025512 68 115 0.0 0.0 0.00 0.00 0.00 62 1010.6
20260506025009 68 125 3.0 3.0 0.00 0.00 0.00 61 1010.7
20260506024506 68 192 3.0 6.0 0.00 0.00 0.00 60 1010.7
20260506024002 69 123 1.0 2.0 0.00 0.00 0.00 59 1010.5
20260506023458 69 167 0.0 0.0 0.00 0.00 0.00 58 1010.8
20260506022955 69 160 0.0 1.0 0.00 0.00 0.00 58 1010.9
20260506022453 68 167 1.0 2.0 0.00 0.00 0.00 57 1010.7
20260506021951 68 138 0.0 1.0 0.00 0.00 0.00 56 1010.8
20260506021448 67 127 0.0 1.0 0.00 0.00 0.00 56 1010.8
20260506020945 68 108 0.0 0.0 0.00 0.00 0.00 57 1010.8
20260506020443 68 153 0.0 0.0 0.00 0.00 0.00 55 1010.9
20260506015940 68 129 0.0 0.0 0.00 0.00 0.00 56 1010.8
20260506015437 68 127 0.0 0.0 0.00 0.00 0.00 56 1010.7
20260506014934 68 140 0.0 0.0 0.00 0.00 0.00 57 1010.7
20260506014431 68 141 0.0 0.0 0.00 0.00 0.00 55 1010.9
20260506013927 68 141 0.0 0.0 0.00 0.00 0.00 55 1010.7
20260506013426 68 142 0.0 0.0 0.00 0.00 0.00 55 1010.5
20260506012921 69 110 0.0 0.0 0.00 0.00 0.00 54 1010.6
20260506012418 69 126 0.0 0.0 0.00 0.00 0.00 52 1010.7
20260506011915 69 125 0.0 0.0 0.00 0.00 0.00 52 1010.6
20260506011412 70 125 0.0 0.0 0.00 0.00 0.00 53 1010.4
20260506010909 70 125 0.0 0.0 0.00 0.00 0.00 51 1010.5
20260506010408 71 125 0.0 0.0 0.00 0.00 0.00 50 1010.4
20260506005904 71 125 0.0 0.0 0.00 0.00 0.00 50 1010.3
20260506005402 71 151 0.0 0.0 0.00 0.00 0.00 48 1010.2
20260506004856 72 151 0.0 0.0 0.00 0.00 0.00 48 1010.3
20260506004355 72 151 0.0 0.0 0.00 0.00 0.00 48 1010.2
20260506003851 72 156 0.0 0.0 0.00 0.00 0.00 47 1010.1
20260506003347 73 130 0.0 0.0 0.00 0.00 0.00 46 1010.1
20260506002843 73 131 0.0 0.0 0.00 0.00 0.00 46 1010.0
20260506002340 73 132 0.0 0.0 0.00 0.00 0.00 47 1010.0
20260506001835 74 147 0.0 0.0 0.00 0.00 0.00 45 1009.9
20260506001333 74 147 0.0 0.0 0.00 0.00 0.00 44 1009.9
20260506000830 74 127 0.0 0.0 0.00 0.00 0.00 44 1009.9
20260506000329 75 139 0.0 0.0 0.00 0.00 0.00 44 1010.0
20260505235824 75 139 0.0 0.0 0.00 0.00 0.00 42 1009.9
20260505235322 75 147 0.0 0.0 0.00 0.00 0.00 42 1009.8
20260505234818 76 128 0.0 0.0 0.00 0.00 0.00 42 1010.0
20260505234316 76 115 0.0 0.0 0.00 0.00 0.00 41 1009.8
20260505233813 76 168 0.0 1.0 0.00 0.00 0.00 40 1010.0
20260505233311 76 151 0.0 0.0 0.00 0.00 0.00 41 1009.9
20260505232808 76 151 0.0 0.0 0.00 0.00 0.00 41 1009.9
20260505232306 77 143 0.0 0.0 0.00 0.00 0.00 40 1009.8
20260505231801 77 291 2.0 3.0 0.00 0.00 0.00 40 1010.0
20260505231300 77 177 0.0 1.0 0.00 0.00 0.00 39 1010.0
20260505230758 77 281 5.0 7.0 0.00 0.00 0.00 39 1009.9
20260505230255 77 161 0.0 0.0 0.00 0.00 0.00 39 1010.0
20260505225751 77 195 0.0 0.0 0.00 0.00 0.00 39 1010.0
20260505225249 77 138 0.0 0.0 0.00 0.00 0.00 39 1010.0
20260505224743 79 226 0.0 0.0 0.00 0.00 0.00 38 1009.8
20260505224241 79 165 0.0 1.0 0.00 0.00 0.00 37 1009.9
20260505223739 80 177 0.0 1.0 0.00 0.00 0.00 36 1009.8
20260505223235 80 183 0.0 2.0 0.00 0.00 0.00 36 1010.0
20260505222731 79 180 0.0 0.0 0.00 0.00 0.00 36 1009.8
20260505222227 79 207 0.0 1.0 0.00 0.00 0.00 37 1010.1
20260505221725 81 136 1.0 4.0 0.00 0.00 0.00 35 1009.9
20260505221221 80 146 0.0 0.0 0.00 0.00 0.00 36 1010.2
20260505220718 81 209 3.0 4.0 0.00 0.00 0.00 35 1010.0
20260505220216 80 157 2.0 2.0 0.00 0.00 0.00 36 1010.0
20260505215714 81 139 0.0 1.0 0.00 0.00 0.00 36 1010.2
20260505215211 80 339 0.0 0.0 0.00 0.00 0.00 37 1010.2
20260505214709 78 145 0.0 0.0 0.00 0.00 0.00 38 1010.1
20260505214206 78 129 1.0 2.0 0.00 0.00 0.00 37 1010.0
20260505213703 79 151 0.0 0.0 0.00 0.00 0.00 37 1010.1
20260505213201 79 145 4.0 6.0 0.00 0.00 0.00 37 1010.3
20260505212656 78 143 0.0 1.0 0.00 0.00 0.00 39 1010.2
20260505212154 79 199 0.0 0.0 0.00 0.00 0.00 39 1010.3
20260505211650 80 233 3.0 6.0 0.00 0.00 0.00 38 1010.3
20260505211148 79 240 3.0 4.0 0.00 0.00 0.00 37 1010.2
20260505210644 78 126 2.0 2.0 0.00 0.00 0.00 39 1010.3
20260505210141 78 133 1.0 2.0 0.00 0.00 0.00 38 1010.6
20260505205638 79 237 3.0 6.0 0.00 0.00 0.00 39 1010.4
20260505205137 79 276 5.0 7.0 0.00 0.00 0.00 38 1010.4
20260505204633 78 220 3.0 4.0 0.00 0.00 0.00 39 1010.6
20260505204131 78 244 5.0 7.0 0.00 0.00 0.00 39 1010.7
20260505203627 78 232 2.0 2.0 0.00 0.00 0.00 39 1010.6
20260505203125 78 135 0.0 0.0 0.00 0.00 0.00 40 1010.7
20260505202620 79 237 6.0 9.0 0.00 0.00 0.00 39 1010.7
20260505202116 80 171 0.0 0.0 0.00 0.00 0.00 40 1010.6
20260505201613 79 131 0.0 0.0 0.00 0.00 0.00 39 1010.8
20260505201111 79 242 0.0 0.0 0.00 0.00 0.00 39 1010.8
20260505200609 79 124 3.0 4.0 0.00 0.00 0.00 38 1011.0
20260505200105 79 167 0.0 0.0 0.00 0.00 0.00 39 1010.7
20260505195601 79 255 2.0 2.0 0.00 0.00 0.00 39 1010.8
20260505195059 78 166 2.0 2.0 0.00 0.00 0.00 38 1010.9
20260505194556 78 85 2.0 3.0 0.00 0.00 0.00 40 1011.0
20260505194051 78 268 11.0 13.0 0.00 0.00 0.00 39 1011.1
20260505193549 79 201 6.0 9.0 0.00 0.00 0.00 39 1011.2
20260505193046 77 175 0.0 0.0 0.00 0.00 0.00 41 1011.5
20260505192545 78 174 1.0 2.0 0.00 0.00 0.00 40 1011.4
20260505192042 79 313 3.0 4.0 0.00 0.00 0.00 39 1011.3
20260505191540 78 158 2.0 2.0 0.00 0.00 0.00 40 1011.5
20260505191038 79 144 3.0 4.0 0.00 0.00 0.00 38 1011.5
20260505190532 79 33 0.0 1.0 0.00 0.00 0.00 39 1011.7
20260505190028 80 218 0.0 2.0 0.00 0.00 0.00 38 1011.6
20260505185525 79 251 3.0 6.0 0.00 0.00 0.00 38 1011.6
20260505185022 79 181 2.0 4.0 0.00 0.00 0.00 38 1011.9
20260505184519 78 226 5.0 7.0 0.00 0.00 0.00 40 1011.9
20260505184015 79 249 0.0 1.0 0.00 0.00 0.00 38 1012.0
20260505183512 79 350 3.0 4.0 0.00 0.00 0.00 38 1012.1
20260505183009 78 70 2.0 3.0 0.00 0.00 0.00 40 1012.2
20260505182506 77 230 5.0 7.0 0.00 0.00 0.00 40 1012.1
20260505182002 79 305 1.0 2.0 0.00 0.00 0.00 38 1012.3
20260505181459 79 305 1.0 2.0 0.00 0.00 0.00 38 1012.3
20260505180956 78 144 0.0 0.0 0.00 0.00 0.00 39 1012.3
20260505180452 78 196 1.0 1.0 0.00 0.00 0.00 39 1012.4
20260505175949 78 137 2.0 3.0 0.00 0.00 0.00 38 1012.2
20260505175445 79 199 1.0 2.0 0.00 0.00 0.00 41 1012.6
20260505174942 78 115 0.0 0.0 0.00 0.00 0.00 41 1012.5
20260505174439 79 266 9.0 10.0 0.00 0.00 0.00 38 1012.5
20260505173935 78 158 1.0 2.0 0.00 0.00 0.00 39 1012.4
20260505173432 78 141 0.0 1.0 0.00 0.00 0.00 42 1012.6
20260505172929 77 292 5.0 6.0 0.00 0.00 0.00 41 1012.5
20260505172428 76 198 6.0 9.0 0.00 0.00 0.00 43 1012.3
20260505171926 77 263 3.0 4.0 0.00 0.00 0.00 41 1012.3
20260505171424 78 249 4.0 6.0 0.00 0.00 0.00 42 1012.4
20260505170920 75 230 2.0 2.0 0.00 0.00 0.00 43 1012.4
20260505170417 75 258 3.0 4.0 0.00 0.00 0.00 45 1012.5
20260505165912 76 293 7.0 8.0 0.00 0.00 0.00 43 1012.7
20260505165408 79 243 3.0 4.0 0.00 0.00 0.00 42 1012.6
20260505164904 78 296 0.0 0.0 0.00 0.00 0.00 39 1012.6
20260505164401 77 271 5.0 7.0 0.00 0.00 0.00 42 1012.8
20260505163859 78 277 4.0 7.0 0.00 0.00 0.00 41 1012.8
20260505163358 76 278 2.0 2.0 0.00 0.00 0.00 43 1012.8
20260505162856 75 250 1.0 1.0 0.00 0.00 0.00 46 1012.9
20260505162351 75 281 6.0 8.0 0.00 0.00 0.00 47 1013.1
20260505161849 73 132 0.0 0.0 0.00 0.00 0.00 49 1013.1
20260505161345 73 239 3.0 3.0 0.00 0.00 0.00 51 1013.5
20260505160843 74 178 0.0 0.0 0.00 0.00 0.00 53 1013.2
20260505160341 74 261 4.0 6.0 0.00 0.00 0.00 54 1013.2
20260505153320 71 250 2.0 3.0 0.00 0.00 0.00 62 1013.4
20260505152817 70 16 0.0 0.0 0.00 0.00 0.00 62 1013.6
20260505152314 70 284 7.0 9.0 0.00 0.00 0.00 60 1013.6
20260505151814 70 295 3.0 3.0 0.00 0.00 0.00 64 1013.6
20260505151311 70 252 0.0 1.0 0.00 0.00 0.00 65 1013.8
20260505150808 70 198 0.0 0.0 0.00 0.00 0.00 65 1013.5
20260505150305 69 216 2.0 4.0 0.00 0.00 0.00 65 1013.6
20260505140235 65 270 4.0 6.0 0.00 0.00 0.00 75 1013.4
20260505130159 61 292 3.0 3.0 0.00 0.00 0.00 80 1013.5
20260505124648 60 158 0.0 0.0 0.00 0.00 0.00 80 1013.3
20260505124145 60 236 2.0 3.0 0.00 0.00 0.00 81 1013.4
20260505123641 59 207 0.0 0.0 0.00 0.00 0.00 82 1013.3
20260505123138 59 267 4.0 4.0 0.00 0.00 0.00 82 1013.4
20260505122634 59 209 2.0 3.0 0.00 0.00 0.00 82 1013.5
20260505122132 58 170 0.0 0.0 0.00 0.00 0.00 82 1013.4
20260505121628 58 277 0.0 0.0 0.00 0.00 0.00 83 1013.5
20260505121125 58 320 0.0 0.0 0.00 0.00 0.00 83 1013.3
20260505120622 57 161 0.0 0.0 0.00 0.00 0.00 84 1013.1
20260505120118 57 127 0.0 0.0 0.00 0.00 0.00 85 1013.3
20260505115618 57 166 0.0 0.0 0.00 0.00 0.00 85 1013.1
20260505115115 57 143 0.0 0.0 0.00 0.00 0.00 86 1013.0
20260505114612 56 314 0.0 0.0 0.00 0.00 0.00 86 1013.1
20260505114109 56 314 0.0 0.0 0.00 0.00 0.00 86 1013.0
20260505113605 56 314 0.0 0.0 0.00 0.00 0.00 87 1012.9